Tracking 30009 objects as of 7-Dec-2024
HD Live streaming from Space Station
objects crossing your sky now

STARLINK-31549

Track STARLINK-31549 now!
10-day predictions
STARLINK-31549 is classified as:


NORAD ID: 59360
Int'l Code: 2024-060N
Perigee: 450.1 km
Apogee: 452.4 km
Inclination: 43.0 °
Period: 93.5 minutes
Semi major axis: 6822 km
RCS: Unknown
Launch date: March 31, 2024
Source: United States (US)
Launch site: AIR FORCE EASTERN TEST RANGE (AFETR)
Your satellite tracking list
Your tracking list is empty




NASA's NSSDC Master Catalog

Two Line Element Set (TLE):
1 59360U 24060N   24342.05080978 -.00005860  00000-0 -13320-3 0  9990
2 59360  43.0019 335.5513 0001694 286.0214  74.0456 15.40679345 39934
Source of the keplerian elements: AFSPC